www.pogodaiklimat.ru

Погода и климат >> Архив погоды >> Южная Африка >> Аэропорт Джордж


ПОГОДА в Аэропорту Джордж

  • Прогноз погоды в Аэропорту Джордж
  • Монитор погоды в Аэропорту Джордж

АРХИВ ПОГОДЫ в Аэропорту Джордж

Время (UTC), дата Ветер
(напр.,м/с)
 
Видим.   Явления Облачность Т
(С)
Тd
(С)
f
(%)
Тe
(С)
Тes
(С)
Комфортность P
(гПа)
Po
(гПа)
Тmin
(С)
Tmax
(С)
R
(мм)
R24
(мм)
S
(см)
03 12.08 З 5 20 км 9/9 1000 м
[Sc]
+10.7 +1.3 52 +8 +8 1020.2 996.5
06 12.08 З 5 20 км 9/9 1000 м
[Sc]
+11.5 +3.6 58 +9 +9 1022.1 998.4 +9.0 0.1
09 12.08 З 8 20 км 6/6 1000 м
[Sc]
+15.6 +5.6 51 +14 +15 1023.2 999.5
12 12.08 ЮЗ 6 20 км 5/5 1000 м
[Sc]
+17.9 +3.9 39 +17 +19 1022.0 998.3 +11.5
15 12.08 ЮЗ 5 20 км 5/5 600 м
[Sc]
+13.7 +7.5 66 +12 +12 1023.2 999.3 +18.7
18 12.08 СЗ 2 20 км 5/3 600 м
[Sc Cs]
+11.1 +4.6 64 +10 +10 1024.9 1001.0 +18.7
00 13.08 С 2 40 км ясно +7.8 +4.0 77 +6 +6 1024.7 1000.5
03 13.08 С 2 20 км ясно +6.9 +2.8 75 +5 +5 1023.0 999.3
06 13.08 СЗ 2 20 км 1/0
[Ci]
+7.6 +3.3 74 +6 +7 1023.7 1000.0 +4.9
09 13.08 З 2 20 км ясно +15.5 +5.5 51 +15 +24 1024.8 1001.0
12 13.08 З 3 20 км 1/1 2000 м
[Sc]
+19.5 +2.9 33 +20 +27 1022.6 998.9 +7.6
15 13.08 Ю 4 20 км 1/0
[Ci]
+17.0 +5.4 46 +17 +17 1022.5 998.8 +20.2
18 13.08 нст 2 20 км ясно +11.2 +2.0 53 +11 +11 1024.2 1000.5 +20.2
00 14.08 СЗ 3 30 км ясно +11.6 +2.4 53 +10 +10 1025.0 1001.1
03 14.08 СЗ 3 20 км 1/1 1000 м
[Sc]
+11.6 +1.0 48 +10 +10 1025.7 1001.8
06 14.08 З 4 20 км 9/9 1000 м
[Sc]
+13.7 +7.1 64 +12 +13 1029.0 1005.0 +9.1
09 14.08 З 7 6000 м слаб. морось {дождь} 10/10 600 м
[Sc]
+14.1 +11.8 86 +12 +12 1031.9 1008.1
12 14.08 Ю 5 20 км 5/5 1000 м
[Sc]
+18.0 +11.8 67 +18 +20 1030.1 1006.2 +9.1
15 14.08 Ю 3 20 км 8/8 300 м
[Sc]
+15.8 +11.8 77 +15 +16 1031.2 1007.3 +19.4
18 14.08 В 2 20 км 8/8 600 м
[Sc]
+14.0 +11.7 86 +13 +13 1032.0 1008.1 +19.4
00 15.08 нст 1 30 км ясно +8.7 +6.8 88 +9 +9 1029.2 1005.0
03 15.08 СЗ 2 20 км ясно +8.2 +5.7 84 +7 +7 1027.4 1003.6
06 15.08 СЗ 2 20 км ясно +8.5 +6.1 85 +7 +7 1027.2 1003.4 +6.1
09 15.08 ЮЗ 1 20 км ясно +21.2 +7.6 41 +22 +32 комфорт 1027.3 1003.5
12 15.08 Ю 3 20 км ясно +22.7 +8.2 39 +24 +31 комфорт 1025.0 1001.2 +8.5
15 15.08 Ю 3 20 км 1/0
[Ac und]
+21.1 +6.4 38 +22 +22 комфорт 1024.4 1000.6 +24.2
18 15.08 СЗ 1 20 км ясно +13.0 +7.5 69 +13 +13 1025.3 1001.5 +24.2
00 16.08 нст 1 40 км 6/6 50 м
[]
+9.7 +5.7 76 +9 +9 1024.2 1000.2
06 16.08 СЗ 5 20 км 9/9 50 м
[Sc]
+9.7 +8.8 94 +6 +6 1025.4 1001.6 +7.2
12 16.08 ЮЗ 4 20 км 1/1 600 м
[Sc]
+17.5 +9.5 59 +17 +23 1025.3 1001.6 +9.7
15 16.08 ЮЗ 3 20 км 6/6 300 м
[Sc]
+15.3 +10.3 72 +15 +15 1026.5 1002.7 +18.2
18 16.08 СЗ 2 20 км ясно +13.1 +9.8 80 +13 +13 1028.1 1004.2 +18.2
00 17.08 З 3 20 км 9/9 1500 м
[]
+13.0 +9.3 78 +12 +12 1028.5 1004.7
03 17.08 В 1 20 км 10/10 300 м
[Sc]
+12.2 +10.3 88 +12 +12 1028.0 1004.2
06 17.08 СВ 1 2000 м слаб. морось 10/10 100 м
[St]
+12.5 +11.4 93 +12 +12 1028.4 1004.6 +11.6 1
12 17.08 В 9 20 км 9/9 300 м
[Sc]
+15.9 +11.7 76 +14 +14 1024.5 1000.7 +12.5
15 17.08 В 7 20 км 10/10 300 м
[Sc]
+15.1 +12.3 83 +13 +13 1023.1 999.4 +16.4
18 17.08 В 5 20 км 9/9 600 м
[Sc]
+14.1 +12.0 87 +12 +12 1022.2 998.5 +16.4
00 18.08 СЗ 2 20 км 3/3
[]
+9.0 +8.1 94 +7 +7 1017.9 994.0
03 18.08 СЗ 2 20 км 4/0
[Ac und]
+9.6 +9.0 96 +8 +8 1014.7 991.3
06 18.08 З 2 20 км 4/0
[Ac und]
+9.8 +8.6 92 +9 +9 1013.9 990.4 +8.5
09 18.08 Ю 3 20 км 4/0
[Ac und]
+23.7 +10.2 42 +25 +30 комфорт 1013.6 990.0
12 18.08 ЮЗ 3 20 км 1/0
[Ci]
+27.0 +10.1 35 +28 +35 жарко 1013.2 989.7 +10.5
15 18.08 Ю 6 9000 м дымка 9/9 200 м
[St]
+16.4 +14.1 86 +15 +15 1015.2 991.7 +27.0
18 18.08 СЗ 4 20 км 8/8 1000 м
[Sc]
+14.6 +11.8 83 +13 +13 1019.2 995.6 +27.0
00 19.08 СЗ 6 30 км ясно +12.7 +8.2 74 +10 +10 1022.5 998.8

 

Местоположение метеостанции Аэропорт Джордж (Южная Африка): широта -34.01 долгота 22.38 высота над уровнем моря 190 м.

В архиве по умолчанию представлена погода в Аэропорту Джордж за последнюю неделю. Архивные данные за месяц целиком и за предыдущие месяцы, начиная с января 2011 года, Вы можете получить, выбрав интересующий диапазон дат из раскрывающегося списка и нажав кнопку "Ввод!".


*Определитесь, кто Вы:
робот инопланетянин человек

Внимание! Время в таблицах - всемирное. Для получения местного времени необходимо прибавить поправку, которая равна 2 ч.

Смотрите также архив погоды в соседних городах и на ближайших метеорологических станциях:

Погода на Мысе Mossel Bay (Южная Африка) (28 км)
Погода в Найсне (Южная Африка) (65 км)
Погода в Плеттенберг-Бей (Южная Африка) (88 км)
Погода в Принс Альберт (Южная Африка) (97 км)
Погода в Стилбай (Южная Африка) (99 км)
Погода в Риверсдейле (Южная Африка) (104 км)
Погода в Уиллоуморе (Южная Африка) (132 км)
Погода в Джоубертине (Южная Африка) (138 км)
Погода в Парке Tsitsikamma (Южная Африка) (141 км)
Погода в Ледисмите (Южная Африка) (152 км)

Пояснения к столбцам:

Ветер - указаны скорость ветра в м/с - средняя за 10 мин, порывы в срок и между сроками (в фигурных скобках) и направление, откуда дует ветер: С - северный, СВ - северо-восточный, В - восточный, ЮВ - юго-восточный, Ю - южный, ЮЗ - юго-западный, З - западный, СЗ - северо-западный.
Видимость - горизонтальная дальность видимости в метрах или километрах. При видимости от 1 до 10 км при отсутствии осадков обычно наблюдается дымка, при ухудшении видимости до 1 км и менее - туман. В сухую погоду видимость может ухудшаться дымом, пылью или мглою.
Явления - указаны атмосферные явления, наблюдавшиеся в срок или в последний час перед сроком; фигурными скобками обозначены явления, наблюдавшиеся между сроками (за 1-3 часа до срока); квадратными скобками обозначены град или гололедные отложения с указанием их диаметра в мм.
Облачность - указаны через наклонную черту общая и нижняя облачность в баллах и высота нижней границы облаков в метрах; квадратными скобками обозначены формы облаков: Ci - перистые, Cs - перисто-слоистые, Cc - перисто-кучевые, Ac - высококучевые, As - высокослоистые, Sc - слоисто-кучевые, Ns - слоисто-дождевые, Cu - кучевые, Cb - кучево-дождевые. Подробнее классификацию облаков см. в Атласе облаков (PDF).
T - Температура воздуха - температура, измеренная на высоте 2 м над землей.
Td - Температура точки росы - температура, при понижении до которой содержащийся в воздухе водяной пар достигнет насыщения.
f - Относительная влажность воздуха - влажноcть воздуха, измеренная на высоте 2 м над землей.
Te - Эффективная температура - температура, которую ощущает одетый по сезону человек в тени. Характеристика душности погоды. При расчете учитывается влияние влажности воздуха и скорости ветра на теплоощущения человека.
Tes - Эффективная температура на солнце - температура, которую ощущает человек, с поправкой на солнечный нагрев. Характеристика знойности погоды. Зависит от высоты солнца над горизонтом, облачности и скорости ветра. Ночью, в пасмурную погоду, а также при ветре 12 м/с и более поправка равна нулю.
P - Атмосферное давление - приведенное к уровню моря атмосферное давление.
Po - Атмосферное давление - измеренное на уровне метеостанции атмосферное давление.
Tmin - Минимальная температура - минимум температуры воздуха на высоте 2 м над землей.
Tmax - Максимальная температура - максимум температуры воздуха на высоте 2 м над землей.
R - Количество осадков - Количество выпавших осадков за период времени, мм. При наведении курсора мыши на число - период времени, за который выпало указанное количество осадков.
R24 - Количество осадков - Количество выпавших осадков за 24 часа, мм.
S - Снежный покров - Высота снежного покрова, см. При наведении курсора мыши на число - состояние снежного покрова и степень покрытия местности в баллах.